{"data":{"norad_id":57178,"epoch":"2026-05-25T03:59:01.801248Z","epoch_age_seconds":60394,"freshness":"FRESH","line1":"1 57178U 23091N   26145.16599307  .00012974  00000+0  44094-3 0  9997","line2":"2 57178  97.5104 210.4724 0011522 166.5947 193.5602 15.30537143160909","mean_motion":15.30537143,"eccentricity":0.0011522,"inclination_deg":97.5104,"raan_deg":210.4724,"arg_perigee_deg":166.5947,"mean_anomaly_deg":193.5602,"bstar":0.00044094,"rev_number":16090,"period_min":94.084616409731,"perigee_km":466.31333337409,"apogee_km":482.10387858851,"semimajor_km":6852.3456059813,"source":"CELESTRAK","updated_at":"2026-05-25T13:38:23.291182Z"}}